CDT,Max TemperatureF,Mean TemperatureF,Min TemperatureF,Max Dew PointF,MeanDew PointF,Min DewpointF,Max Humidity, Mean Humidity, Min Humidity, Max Sea Level PressureIn, Mean Sea Level PressureIn, Min Sea Level PressureIn, Max VisibilityMiles, Mean VisibilityMiles, Min VisibilityMiles, Max Wind SpeedMPH, Mean Wind SpeedMPH, Max Gust SpeedMPH,PrecipitationIn, CloudCover, Events, WindDirDegrees
2013-6-1,73,66,58,65,60,54,100,87,56,29.96,29.79,29.70,10,10,8,15,6,26,0.00,2,Thunderstorm,264
2013-6-2,64,58,51,59,55,51,100,84,71,30.09,30.04,29.97,10,10,10,13,7,,0.00,7,,335
2013-6-3,73,60,46,59,54,47,100,78,55,30.11,30.03,29.94,10,10,10,9,3,,0.00,1,,143
2013-6-4,72,66,60,68,64,59,100,92,79,30.05,29.99,29.93,10,10,9,13,7,18,0.05,4,Rain,144
2013-6-5,68,63,58,68,64,59,100,100,100,29.99,29.94,29.91,10,8,4,12,6,,0.06,6,Rain-Thunderstorm,35
2013-6-6,74,66,59,65,60,54,100,87,50,29.95,29.93,29.91,10,9,7,14,7,17,0.03,6,Rain,341
2013-6-7,74,63,53,60,55,51,100,78,45,30.00,29.96,29.92,10,10,10,13,3,18,0.00,1,,342
2013-6-8,79,66,52,62,58,52,100,74,48,29.96,29.90,29.82,10,10,10,16,5,21,0.00,2,,169
2013-6-9,79,70,61,68,62,55,100,85,43,29.89,29.84,29.77,10,10,7,16,10,22,0.31,5,Rain,231
2013-6-10,83,71,59,68,63,59,100,77,52,29.90,29.86,29.81,10,10,10,12,6,,0.00,0,Rain,256
2013-6-11,93,81,69,72,69,65,100,71,40,29.91,29.87,29.82,10,10,10,18,11,28,0.00,2,,204
2013-6-12,93,83,73,76,73,66,99,72,49,29.86,29.81,29.76,10,10,10,30,16,39,0.00,1,,228
2013-6-13,85,74,63,68,62,58,99,68,45,30.05,29.99,29.89,10,10,10,16,10,,0.00,0,,2
2013-6-14,86,76,65,71,68,65,100,79,54,30.06,29.99,29.92,10,10,10,14,7,21,0.00,0,,141
2013-6-15,85,76,68,79,71,66,100,94,76,30.05,29.99,29.92,10,9,1,31,10,45,1.05,4,Rain-Thunderstorm,185
2013-6-16,82,74,67,79,73,68,100,97,80,29.99,29.96,29.90,10,10,10,10,6,,0.01,5,,87
2013-6-17,77,72,66,73,70,66,100,96,78,29.98,29.95,29.89,10,10,10,14,6,18,0.00,5,Thunderstorm,147
2013-6-18,85,74,63,75,67,61,100,82,44,30.02,29.99,29.96,10,10,10,13,5,,0.00,1,,343
2013-6-19,86,74,62,71,67,63,100,79,54,30.05,30.01,29.97,10,10,9,9,3,,0.00,0,,137
2013-6-20,87,78,68,72,70,68,100,79,55,30.06,30.02,29.96,10,10,10,18,9,22,0.00,0,Thunderstorm,161
2013-6-21,92,82,73,77,75,71,99,79,57,30.03,29.98,29.94,10,10,10,23,14,29,0.00,0,,188
2013-6-22,91,81,72,77,74,72,100,80,57,30.02,29.96,29.89,10,10,10,22,11,24,0.00,1,,181
2013-6-23,90,80,70,75,73,69,100,81,61,29.96,29.92,29.87,10,10,10,18,13,24,0.00,1,Thunderstorm,173
2013-6-24,91,82,72,75,73,70,99,75,54,30.01,29.93,29.81,10,10,10,22,14,28,0.00,0,,196
2013-6-25,88,82,76,75,72,70,84,75,60,29.91,29.83,29.74,10,10,10,23,16,34,0.01,4,Rain,199
2013-6-26,98,86,74,74,69,60,89,63,28,29.87,29.79,29.73,10,10,10,17,14,21,0.00,0,,264
2013-6-27,90,78,67,76,71,66,100,83,44,30.01,29.91,29.83,10,10,10,18,4,25,0.01,4,Rain-Thunderstorm,205
2013-6-28,87,76,66,75,66,58,100,77,38,30.01,29.90,29.82,10,8,2,37,14,58,0.00,3,Rain-Thunderstorm,297
2013-6-29,84,74,63,66,62,58,100,72,41,29.85,29.81,29.76,10,10,9,29,12,36,0.05,3,Rain,323
2013-6-30,79,70,62,65,62,59,100,76,52,30.00,29.93,29.85,10,10,10,17,10,22,0.30,3,,360